This is the latest recevied weather packets stored in our database for station/object OE-11190. If no packets are shown the sender has not sent any weather packets the latest 10 day(s).
| Time | Temp. | Humidity | Pressure | Rain* | Wind** | Luminosity | Snow |
|---|---|---|---|---|---|---|---|
| 1788143107 | 65° F | 78% | 760.6 mmHg | 0 in | - | 0 W/m² | - |
| 1788142280 | 66° F | 76% | 760.5 mmHg | 0 in | - | 0 W/m² | - |
| 1788141908 | 66° F | 74% | 760.6 mmHg | 0 in | - | 0 W/m² | - |
| 1788141308 | 67° F | 72% | 760.5 mmHg | 0 in | - | 0 W/m² | - |
| 1788140481 | 66° F | 75% | 760.6 mmHg | 0 in | - | 0 W/m² | - |
| 1788140108 | 65° F | 76% | 760.6 mmHg | 0 in | - | 0 W/m² | - |
| 1788139508 | 66° F | 75% | 760.8 mmHg | 0 in | - | 0 W/m² | - |
| 1788138680 | 66° F | 75% | 760.9 mmHg | 0 in | - | 0 W/m² | - |
| 1788138308 | 66° F | 74% | 760.9 mmHg | 0 in | - | 0 W/m² | - |
| 1788137708 | 66° F | 74% | 760.9 mmHg | 0 in | - | 0 W/m² | - |
| 1788136880 | 67° F | 72% | 760.9 mmHg | 0 in | - | 0 W/m² | - |
| 1788136508 | 67° F | 71% | 760.8 mmHg | 0 in | - | 0 W/m² | - |
| 1788135908 | 68° F | 68% | 760.9 mmHg | 0 in | - | 0 W/m² | - |
| 1788135081 | 69° F | 66% | 760.8 mmHg | 0 in | - | 0 W/m² | - |
| 1788134708 | 69° F | 67% | 760.8 mmHg | 0 in | - | 0 W/m² | - |
| 1788134108 | 69° F | 67% | 760.7 mmHg | 0 in | - | 0 W/m² | - |
| 1788133519 | 69° F | 66% | 760.7 mmHg | 0 in | - | 0 W/m² | - |
| 1788132907 | 69° F | 65% | 760.8 mmHg | 0 in | - | 0 W/m² | - |
| 1788132307 | 69° F | 65% | 760.8 mmHg | 0 in | - | 0 W/m² | - |
| 1788131708 | 69° F | 64% | 760.9 mmHg | 0 in | - | 0 W/m² | - |
| 1788131108 | 69° F | 64% | 760.9 mmHg | 0 in | - | 0 W/m² | - |
| 1788130508 | 69° F | 63% | 760.9 mmHg | 0 in | - | 0 W/m² | - |
| 1788129681 | 69° F | 63% | 761 mmHg | 0 in | - | 0 W/m² | - |
| 1788129308 | 69° F | 65% | 761 mmHg | 0 in | - | 0 W/m² | - |
| 1788128708 | 69° F | 63% | 761.1 mmHg | 0 in | - | 0 W/m² | - |
* Rain latest hour (hover to see other rain measurements)
** Current wind speed in m/s (hover to see current wind gust speed)